Regional Weather Roundup
Issued by NWS Nashville, TN

Home | Current Version | Previous Version | Text Only | Print | Product List | Glossary On
Versions: 1 2 3 4 5 6 7 8 9 10 11 12 13 14 15 16 17 18 19 20 21 22 23 24 25 26 27
000
ASUS44 KOHX 281310
RWROHX
MIDDLE TENNESSEE HOURLY WEATHER ROUNDUP
NATIONAL WEATHER SERVICE NASHVILLE TN
700 AM CST TUE FEB 28 2017

NOTE: "FAIR" INDICATES FEW OR NO CLOUDS BELOW 12,000 FEET WITH
NO SIGNIFICANT WEATHER AND/OR OBSTRUCTIONS TO VISIBILITY.

* THESE REPORTS ARE NOT UNDER NWS QUALITY CONTROL AND MAY NOT
  REPORT WEATHER SUCH AS PRECIPITATION AND FOG.


TNZ005>011-023>034-057-059-062>066-078-080-281400
...NORTHERN MIDDLE TENNESSEE...

CITY           SKY/WX    TMP DP  RH WIND       PRES   REMARKS
CLARKSVILLE    CLOUDY    60  56  86 S16       30.03S
CROSSVILLE     CLOUDY    52  50  93 S10G18    30.18S
GALLATIN       CLOUDY    55  52  88 S9        30.13F
DICKSON          N/A     58  56  93 S14       30.04F
LIVINGSTON     MOCLDY    57  49  75 SW12      30.13
NASHVILLE      CLOUDY    58  52  80 S16       30.09F
PORTLAND       CLOUDY    55  52  88 S15G21    30.08F
SMYRNA         CLOUDY    57  53  86 S9        30.11F
SPARTA         MOCLDY    55  52  88 S6        30.14R
SPRINGFIELD    CLOUDY    59  55  88 S14G21    30.04F
WEST NASHVILLE CLOUDY    57  54  88 S10       30.08F
$$
TNZ056-058-060-061-075>077-079-093>097-281400
...SOUTHERN MIDDLE TENNESSEE...

CITY           SKY/WX    TMP DP  RH WIND       PRES   REMARKS
COLUMBIA       CLOUDY   N/A N/A N/A S13       30.08S
FAYETTEVILLE   CLOUDY    55  55 100 S12G18    30.15S
MCMINNVILLE    PTCLDY    57  55  94 S5        30.15R
MURFREESBORO     N/A     57  52  84 S12       30.11
SHELBYVILLE    CLOUDY    57  55  94 S12       30.14S
TULLAHOMA      CLOUDY    54  52  94 S10       30.15S
WINCHESTER     CLOUDY    55  54  94 S15       30.17F
$$


...KEY TO REMARKS...
VSB - VISIBILITY IN MILES
WCI - WIND CHILL INDEX
HX  - HEAT INDEX





USA.gov is the U.S. government's official web portal to all federal, state and local government web resources and services.